FW2795 Weather Reports


Display with metric or nautical units.
time (UTC)temp
F
wind
direction
speed
MPH
gust
MPH
rain 1hr
in
rain 24hr
in
rain mn
in
humidity
%
barometer
mb
20260903030510 66 231 4.0 6.0 0.00 0.04 0.00 84 1016.9
20260903030007 66 238 3.0 4.0 0.00 0.04 0.00 85 1016.7
20260903025521 66 227 4.0 8.0 0.00 0.04 0.00 85 1017.1
20260903025011 66 226 5.0 6.0 0.00 0.04 0.00 85 1016.8
20260903024511 66 256 2.0 7.0 0.00 0.04 0.00 85 1016.8
20260903024011 66 254 4.0 6.0 0.00 0.04 0.00 85 1016.7
20260903023510 66 244 4.0 7.0 0.00 0.04 0.00 85 1016.8
20260903023025 66 239 6.0 10.0 0.00 0.04 0.00 85 1017.1
20260903022510 66 263 2.0 3.0 0.00 0.04 0.00 85 1017.1
20260903022009 66 268 4.0 5.0 0.00 0.04 0.00 85 1016.9
20260903021509 66 258 4.0 6.0 0.00 0.04 0.00 85 1016.8
20260903021024 66 248 3.0 4.0 0.00 0.04 0.00 85 1017.0
20260903020509 66 275 4.0 5.0 0.00 0.04 0.00 85 1016.9
20260903020008 66 247 4.0 5.0 0.00 0.04 0.00 85 1016.9
20260903015523 66 223 4.0 5.0 0.00 0.04 0.00 85 1016.8
20260903015012 66 238 5.0 8.0 0.00 0.04 0.00 85 1016.9
20260903014512 66 249 4.0 7.0 0.00 0.04 0.00 84 1016.9
20260903014017 66 232 3.0 4.0 0.00 0.04 0.00 84 1016.9
20260903013516 66 241 2.0 3.0 0.00 0.04 0.00 84 1017.1
20260903013015 66 227 2.0 3.0 0.00 0.04 0.00 84 1017.2
20260903012515 66 220 2.0 4.0 0.00 0.04 0.00 84 1017.1
20260903012014 66 240 2.0 4.0 0.00 0.04 0.00 85 1016.9
20260903011514 66 241 2.0 4.0 0.00 0.04 0.00 84 1017.2
20260903011019 66 254 2.0 2.0 0.00 0.04 0.00 85 1017.3
20260903010503 66 252 3.0 4.0 0.00 0.04 0.00 84 1017.2
20260903010003 66 250 2.0 4.0 0.00 0.04 0.00 84 1017.1
20260903005503 66 271 2.0 2.0 0.00 0.04 0.00 84 1017.4
20260903005017 66 268 3.0 4.0 0.00 0.04 0.00 84 1017.4
20260903004507 66 267 2.0 3.0 0.00 0.04 0.00 85 1017.4
20260903004006 66 251 3.0 4.0 0.00 0.04 0.00 85 1017.6
20260903003520 66 241 3.0 4.0 0.00 0.04 0.00 85 1017.6
20260903003010 66 256 3.0 4.0 0.00 0.04 0.00 85 1017.6
20260903002507 66 250 2.0 5.0 0.00 0.04 0.00 85 1017.7
20260903002021 66 258 3.0 4.0 0.00 0.04 0.00 85 1017.8
20260903001511 66 244 2.0 3.0 0.00 0.04 0.00 85 1017.7
20260903001010 66 255 2.0 4.0 0.00 0.04 0.00 85 1017.5
20260903000510 66 263 4.0 5.0 0.00 0.04 0.00 85 1017.6
20260903000009 66 241 2.0 4.0 0.00 0.04 0.00 85 1017.7
20260902235509 66 233 2.0 2.0 0.00 0.04 0.00 85 1017.7
20260902235009 66 233 4.0 6.0 0.00 0.04 0.00 85 1017.6
20260902234508 66 239 4.0 6.0 0.00 0.04 0.00 85 1017.9
20260902234013 66 243 3.0 4.0 0.00 0.04 0.00 85 1017.7
20260902233518 66 243 3.0 4.0 0.00 0.04 0.00 85 1017.8
20260902233007 66 232 3.0 4.0 0.00 0.04 0.00 85 1017.7
20260902232507 66 234 4.0 5.0 0.00 0.04 0.00 85 1017.7
20260902232007 66 245 2.0 3.0 0.00 0.04 0.00 85 1017.7
20260902231507 66 228 2.0 4.0 0.00 0.04 0.00 85 1017.8
20260902231021 66 247 3.0 4.0 0.00 0.04 0.00 85 1017.7
20260902230520 66 247 2.0 3.0 0.00 0.04 0.00 85 1018.1
20260902230010 66 245 2.0 4.0 0.00 0.04 0.00 85 1018.1
20260902225525 66 251 3.0 4.0 0.00 0.04 0.00 85 1018.3
20260902225015 66 239 3.0 4.0 0.00 0.04 0.00 85 1018.1
20260902224514 66 278 2.0 4.0 0.00 0.04 0.00 85 1017.8
20260902224014 66 279 5.0 8.0 0.00 0.04 0.00 85 1017.7
20260902223514 66 240 4.0 6.0 0.00 0.04 0.00 86 1017.8
20260902223014 66 254 2.0 4.0 0.00 0.04 0.00 86 1017.8
20260902222513 66 256 2.0 4.0 0.00 0.04 0.00 86 1017.7
20260902222013 66 250 3.0 5.0 0.00 0.04 0.00 86 1018.0
20260902221518 66 242 6.0 8.0 0.00 0.04 0.00 86 1017.9
20260902221017 66 226 3.0 6.0 0.00 0.04 0.00 87 1018.0
20260902220517 66 212 4.0 6.0 0.00 0.04 0.00 87 1018.0
20260902220016 66 232 5.0 7.0 0.00 0.04 0.00 87 1018.0
20260902215516 66 237 4.0 5.0 0.00 0.04 0.00 87 1018.1
20260902215016 66 243 4.0 6.0 0.00 0.04 0.00 87 1018.2
20260902214516 66 258 3.0 4.0 0.00 0.04 0.00 86 1018.1
20260902214010 66 242 1.0 2.0 0.00 0.04 0.00 86 1017.8
20260902213510 66 246 2.0 3.0 0.00 0.04 0.00 86 1017.4
20260902213025 66 234 2.0 2.0 0.00 0.04 0.00 86 1017.7
20260902212514 66 230 2.0 2.0 0.00 0.04 0.00 86 1017.5
20260902212014 64 232 2.0 4.0 0.00 0.04 0.00 85 1017.5
20260902211514 66 235 5.0 6.0 0.00 0.04 0.00 86 1017.6
20260902211013 66 250 1.0 2.0 0.00 0.04 0.00 86 1017.7
20260902210513 66 242 5.0 8.0 0.00 0.04 0.00 87 1017.7
20260902210012 66 261 3.0 4.0 0.00 0.04 0.00 87 1018.0
20260902205512 66 300 2.0 2.0 0.00 0.04 0.00 87 1017.7
20260902205027 66 282 7.0 9.0 0.00 0.04 0.00 87 1017.7
20260902204511 66 213 1.0 2.0 0.00 0.04 0.00 87 1017.9
20260902204011 66 213 2.0 2.0 0.00 0.04 0.00 87 1017.7
20260902203511 66 210 3.0 4.0 0.00 0.04 0.00 88 1017.7
20260902203025 66 232 3.0 4.0 0.00 0.04 0.00 88 1017.7
20260902202510 66 242 2.0 2.0 0.00 0.04 0.00 88 1017.7
20260902202010 66 247 2.0 3.0 0.00 0.04 0.00 88 1017.7
20260902201509 66 253 3.0 4.0 0.00 0.04 0.00 88 1017.6
20260902201009 66 220 0.0 2.0 0.00 0.04 0.00 88 1017.6
20260902200509 66 225 2.0 2.0 0.00 0.04 0.00 88 1017.5
20260902200008 66 214 2.0 3.0 0.00 0.04 0.00 88 1017.5
20260902195508 66 203 2.0 2.0 0.00 0.04 0.00 88 1017.4
20260902195023 66 202 4.0 6.0 0.00 0.04 0.00 88 1017.4
20260902194527 66 219 5.0 8.0 0.00 0.04 0.00 88 1017.5
20260902194017 66 259 2.0 4.0 0.00 0.04 0.00 88 1017.5
20260902193516 66 256 2.0 3.0 0.00 0.04 0.00 88 1017.7
20260902193015 66 258 2.0 4.0 0.00 0.04 0.00 88 1017.8
20260902192515 66 244 4.0 6.0 0.00 0.04 0.00 88 1017.5
20260902192015 66 259 2.0 3.0 0.00 0.04 0.00 88 1017.5
20260902191515 66 253 2.0 4.0 0.00 0.04 0.00 89 1017.6
20260902191014 66 244 3.0 4.0 0.00 0.04 0.00 89 1017.5
20260902190514 66 239 4.0 7.0 0.00 0.04 0.00 90 1017.4
20260902190014 66 255 2.0 3.0 0.00 0.04 0.00 90 1017.3
20260902185513 66 281 2.0 3.0 0.00 0.04 0.00 90 1017.5
20260902185003 66 265 1.0 2.0 0.00 0.04 0.00 90 1017.2
20260902184502 66 263 2.0 3.0 0.00 0.04 0.00 90 1017.1
20260902184017 66 270 4.0 5.0 0.00 0.04 0.00 89 1017.0
20260902183517 66 241 1.0 3.0 0.00 0.04 0.00 89 1017.2
20260902183021 66 246 4.0 7.0 0.00 0.04 0.00 89 1017.2
20260902182505 66 236 5.0 8.0 0.00 0.04 0.00 89 1017.2
20260902182005 66 220 4.0 7.0 0.00 0.04 0.00 90 1017.1
20260902181504 66 235 4.0 5.0 0.00 0.04 0.00 90 1017.1
20260902181003 66 232 4.0 5.0 0.00 0.04 0.00 90 1017.2
20260902180518 66 272 5.0 7.0 0.00 0.04 0.00 90 1017.3
20260902180013 66 276 3.0 5.0 0.00 0.04 0.00 91 1017.3
20260902175512 66 318 2.0 3.0 0.00 0.04 0.00 91 1017.4
20260902175012 65 256 4.0 5.0 0.00 0.04 0.00 92 1017.4
20260902174511 65 146 4.0 5.0 0.00 0.04 0.00 92 1017.4
20260902174011 65 189 4.0 6.0 0.00 0.04 0.00 92 1017.4
20260902173510 65 211 3.0 4.0 0.00 0.04 0.00 93 1017.5
20260902173025 65 191 4.0 5.0 0.00 0.04 0.00 93 1017.3
20260902172514 65 157 5.0 8.0 0.00 0.04 0.00 93 1017.4
20260902172014 65 121 3.0 6.0 0.00 0.04 0.00 93 1017.6
20260902171514 65 168 6.0 10.0 0.00 0.04 0.00 93 1017.3
20260902171013 65 212 3.0 5.0 0.00 0.04 0.00 93 1017.5
20260902170503 65 259 4.0 7.0 0.00 0.04 0.00 92 1017.3
20260902170002 65 217 4.0 5.0 0.00 0.04 0.00 92 1017.4
20260902165517 65 222 4.0 6.0 0.00 0.04 0.00 92 1017.5
20260902165014 65 234 8.0 13.0 0.00 0.04 0.00 92 1017.4
20260902164459 65 245 4.0 5.0 0.00 0.04 0.00 92 1017.3
20260902163513 65 240 4.0 7.0 0.00 0.04 0.00 92 1017.3
20260902163003 65 258 2.0 3.0 0.00 0.04 0.00 92 1017.5
20260902162518 65 246 5.0 8.0 0.00 0.04 0.00 92 1017.6
20260902161522 65 242 5.0 8.0 0.00 0.04 0.00 90 1017.9
20260902160512 65 227 8.0 10.0 0.00 0.04 0.00 89 1018.0
20260902155511 65 220 8.0 13.0 0.00 0.04 0.00 87 1018.0
20260902155000 65 219 8.0 9.0 0.00 0.04 0.00 87 1018.1
20260902154500 65 206 5.0 7.0 0.00 0.04 0.00 86 1018.1
20260902153500 65 284 6.0 11.0 0.00 0.04 0.00 85 1018.0
20260902152500 66 248 3.0 5.0 0.00 0.04 0.00 83 1018.2
20260902151515 66 234 8.0 12.0 0.00 0.04 0.00 83 1018.4
20260902150957 66 245 4.0 6.0 0.00 0.04 0.00 82 1018.4
20260902150457 66 233 4.0 6.0 0.00 0.04 0.00 82 1018.4
20260902145511 66 224 4.0 5.0 0.00 0.04 0.00 81 1018.4
20260902144511 67 257 7.0 11.0 0.00 0.04 0.00 81 1018.6
20260902143500 66 235 4.0 7.0 0.00 0.04 0.00 83 1018.6
20260902143000 66 224 5.0 8.0 0.00 0.04 0.00 82 1018.8
20260902142459 66 211 3.0 5.0 0.00 0.04 0.00 81 1018.7
20260902141514 67 202 7.0 11.0 0.00 0.04 0.00 76 1019.2
20260902140459 68 199 7.0 9.0 0.00 0.04 0.00 71 1019.0
20260902135513 69 203 6.0 9.0 0.00 0.04 0.00 71 1019.0
20260902134458 68 207 4.0 9.0 0.00 0.04 0.00 72 1018.9
20260902133512 67 222 9.0 13.0 0.00 0.04 0.00 71 1019.0
20260902132457 67 250 4.0 5.0 0.00 0.04 0.00 71 1018.8
20260902131511 67 264 4.0 5.0 0.00 0.04 0.00 71 1019.3
20260902131011 67 253 5.0 9.0 0.00 0.04 0.00 70 1019.2
20260902130510 67 241 4.0 7.0 0.00 0.04 0.00 70 1019.2
20260902125510 67 235 6.0 8.0 0.00 0.04 0.00 70 1019.2
20260902124459 67 228 5.0 8.0 0.00 0.04 0.00 70 1019.3
20260902123514 66 233 2.0 4.0 0.00 0.04 0.00 70 1019.4
20260902122958 66 222 2.0 4.0 0.00 0.04 0.00 71 1019.5
20260902122458 66 233 2.0 3.0 0.00 0.04 0.00 71 1019.5
20260902121512 66 229 5.0 7.0 0.00 0.04 0.00 71 1019.6
20260902120512 66 223 5.0 8.0 0.00 0.04 0.00 71 1019.7
20260902115517 66 195 5.0 9.0 0.00 0.04 0.00 71 1019.6
20260902115011 67 256 3.0 4.0 0.00 0.04 0.00 71 1019.6
20260902114510 67 227 4.0 7.0 0.00 0.04 0.00 72 1019.7
20260902113510 67 198 4.0 9.0 0.00 0.04 0.00 71 1019.8
20260902113010 67 206 4.0 6.0 0.00 0.04 0.00 72 1019.7
20260902112509 67 200 4.0 6.0 0.00 0.04 0.00 73 1019.7
20260902111509 67 242 4.0 6.0 0.00 0.04 0.00 77 1019.9
20260902111009 66 258 3.0 4.0 0.00 0.04 0.00 80 1019.9
20260902110458 65 262 5.0 8.0 0.00 0.04 0.00 80 1020.2
20260902105513 64 263 4.0 7.0 0.00 0.04 0.00 81 1020.3
20260902105003 64 245 5.0 8.0 0.00 0.04 0.00 80 1020.3
20260902104517 64 233 6.0 11.0 0.00 0.04 0.00 80 1020.2
20260902103507 65 191 4.0 6.0 0.01 0.04 0.00 82 1020.3
20260902103006 65 201 2.0 4.0 0.01 0.04 0.00 84 1020.2
20260902102506 65 215 1.0 2.0 0.01 0.04 0.00 86 1020.2
20260902101505 65 203 2.0 3.0 0.02 0.04 0.00 86 1020.4
20260902101005 65 186 2.0 3.0 0.02 0.04 0.00 86 1020.3
20260902100504 65 159 2.0 2.0 0.02 0.04 0.00 86 1020.5
20260902095504 64 138 2.0 3.0 0.04 0.04 0.00 87 1020.5
20260902095004 64 161 1.0 2.0 0.04 0.04 0.00 88 1020.4
20260902094503 63 177 0.0 1.0 0.04 0.04 0.00 90 1020.4
20260902093503 63 215 0.0 1.0 0.02 0.02 0.00 90 1020.4
20260902093003 63 216 1.0 2.0 0.02 0.02 0.00 89 1020.6
20260902092502 62 220 2.0 2.0 0.02 0.02 0.00 88 1020.6
20260902091502 63 224 2.0 3.0 0.01 0.01 0.00 87 1020.7
20260902091002 63 233 2.0 2.0 0.01 0.01 0.00 86 1020.7
20260902090501 63 237 2.0 3.0 0.01 0.01 0.00 85 1020.5
20260902085516 63 228 4.0 7.0 0.00 0.00 0.00 84 1020.6
20260902085006 63 234 4.0 6.0 0.00 0.00 0.00 85 1020.6
20260902084505 64 262 2.0 4.0 0.00 0.00 0.00 82 1020.6
20260902083505 64 254 3.0 5.0 0.00 0.00 0.00 81 1020.6
20260902083005 64 249 3.0 5.0 0.00 0.00 0.00 81 1020.6
20260902082504 64 288 2.0 4.0 0.00 0.00 0.00 81 1020.3
20260902081504 64 244 3.0 4.0 0.00 0.00 0.00 81 1020.5
20260902081003 64 266 2.0 3.0 0.00 0.00 0.00 81 1020.4
20260902080502 64 360 4.0 4.0 0.00 0.00 0.00 81 1020.4
20260902075517 64 225 2.0 3.0 0.00 0.00 0.00 80 1020.1
20260902075006 64 207 2.0 4.0 0.00 0.00 0.00 80 1020.2
20260902074456 64 190 2.0 3.0 0.00 0.00 0.00 80 1020.1
20260902073511 64 229 2.0 2.0 0.00 0.00 0.00 81 1020.1
20260902073010 63 196 2.0 2.0 0.00 0.00 0.00 84 1020.1
20260902072510 63 209 1.0 2.0 0.00 0.00 0.00 84 1020.2
20260902071509 63 226 1.0 2.0 0.00 0.00 0.00 84 1019.9
20260902071009 63 221 4.0 6.0 0.00 0.00 0.00 84 1020.1
20260902070509 63 258 2.0 2.0 0.00 0.00 0.00 85 1019.8
20260902065523 62 315 1.0 2.0 0.00 0.00 0.00 86 1019.9
20260902065010 62 315 2.0 3.0 0.00 0.00 0.00 87 1019.6
20260902064510 62 315 0.0 1.0 0.00 0.00 0.00 87 1019.9
20260902063509 61 180 0.0 0.0 0.00 0.00 0.00 87 1019.9
20260902063009 61 180 0.0 0.0 0.00 0.00 0.00 87 1019.8
20260902062508 61 180 0.0 0.0 0.00 0.00 0.00 87 1019.7
20260902061523 60 180 0.0 0.0 0.00 0.00 0.00 88 1019.6
20260902060957 60 180 0.0 0.0 0.00 0.00 0.00 88 1019.7
20260902060511 60 180 0.0 0.0 0.00 0.00 0.00 88 1019.6
20260902055501 60 180 0.0 0.0 0.00 0.00 0.00 88 1019.6
20260902055000 60 180 0.0 0.0 0.00 0.00 0.00 88 1019.6
20260902054500 60 180 0.0 0.0 0.00 0.00 0.00 88 1019.7
20260902053514 60 315 0.0 1.0 0.00 0.00 0.00 87 1020.1
20260902053004 60 315 0.0 0.0 0.00 0.00 0.00 87 1020.2
20260902052519 60 315 0.0 1.0 0.00 0.00 0.00 87 1020.2
20260902051509 60 315 2.0 2.0 0.00 0.00 0.00 87 1020.0
20260902051008 60 180 0.0 0.0 0.00 0.00 0.00 86 1019.9
20260902050508 60 180 0.0 0.0 0.00 0.00 0.00 86 1019.9
20260902045508 60 180 0.0 0.0 0.00 0.00 0.00 85 1020.1
20260902045022 60 315 0.0 0.0 0.00 0.00 0.00 85 1020.0
20260902044502 60 315 0.0 0.0 0.00 0.00 0.00 85 1020.0
20260902043501 60 315 0.0 0.0 0.00 0.00 0.00 84 1020.0
20260902043001 60 315 0.0 0.0 0.00 0.00 0.00 84 1020.0
20260902042500 60 315 1.0 2.0 0.00 0.00 0.00 84 1020.0
20260902041500 60 315 0.0 1.0 0.00 0.00 0.00 84 1020.2
20260902041000 60 315 0.0 0.0 0.00 0.00 0.00 83 1020.1
20260902040514 60 315 1.0 2.0 0.00 0.00 0.00 83 1020.2
20260902035504 60 315 2.0 2.0 0.00 0.00 0.00 83 1020.3
20260902035003 60 315 2.0 2.0 0.00 0.00 0.00 83 1020.3
20260902034503 60 315 1.0 2.0 0.00 0.00 0.00 83 1020.2
20260902033503 60 315 0.0 1.0 0.00 0.00 0.00 83 1020.2
20260902033003 60 315 1.0 2.0 0.00 0.00 0.00 83 1020.5
20260902032502 60 274 0.0 1.0 0.00 0.00 0.00 83 1020.4
20260902031502 60 259 0.0 1.0 0.00 0.00 0.00 82 1020.4
20260902031002 60 257 1.0 2.0 0.00 0.00 0.00 82 1020.4